Location: Laterina
(43.5167°N, 11.7167°E)
Time: 01:50:39
(UTC+00:00)

RS-44 - Visible Passes

Search period start: 28 February 2021 00:00
Search period end: 10 March 2021 00:00
Orbit: 1175 x 1510 km, 82.5° (Epoch: 27 February)

Date Brightness Start Highest point End Pass type
(mag) Time Alt. Az. Time Alt. Az. Time Alt. Az.
28 Feb ? 00:39:32 22° NNE 00:39:32 22° NNE 00:42:15 10° NNE visible
28 Feb ? 02:32:07 27° NNW 02:32:07 27° NNW 02:35:52 10° N visible
01 Mar ? 01:03:09 27° NNE 01:03:09 27° NNE 01:06:25 10° NNE visible
01 Mar ? 02:55:44 21° NNW 02:55:44 21° NNW 02:59:14 10° N visible
01 Mar ? 23:34:10 12° NE 23:34:10 12° NE 23:34:57 10° NE visible
02 Mar ? 01:26:46 30° N 01:26:46 30° N 01:30:20 10° N visible
02 Mar ? 03:19:21 16° NW 03:19:21 16° NW 03:22:08 10° NNW visible
02 Mar ? 23:57:48 17° NE 23:57:48 17° NE 23:59:51 10° NNE visible
03 Mar ? 01:50:22 29° N 01:50:22 29° N 01:54:06 10° N visible
03 Mar ? 03:42:57 10° NW 03:42:57 10° NW 03:43:20 10° NW visible
04 Mar ? 00:21:23 23° NNE 00:21:23 23° NNE 00:24:14 10° NNE visible
04 Mar ? 02:13:58 25° NNW 02:13:58 25° NNW 02:17:39 10° N visible
05 Mar ? 00:44:58 28° NNE 00:44:58 28° NNE 00:48:19 10° NNE visible
05 Mar ? 02:37:33 20° NW 02:37:33 20° NW 02:40:56 10° NNW visible
05 Mar ? 23:15:58 13° NE 23:15:58 13° NE 23:17:12 10° NE visible
06 Mar ? 01:08:33 30° N 01:08:33 30° N 01:12:13 10° N visible
06 Mar ? 03:01:08 14° NW 03:01:08 14° NW 03:03:42 10° NNW visible
06 Mar ? 23:39:32 19° NE 23:39:32 19° NE 23:41:55 10° NNE visible
07 Mar ? 01:32:07 28° NNW 01:32:07 28° NNW 01:35:56 10° N visible
08 Mar ? 00:03:06 25° NNE 00:03:06 25° NNE 00:06:13 10° NNE visible
08 Mar ? 01:55:41 24° NNW 01:55:41 24° NNW 01:59:26 10° N visible
09 Mar ? 00:26:40 29° NNE 00:26:40 29° NNE 00:30:15 10° N visible
09 Mar ? 02:19:15 19° NW 02:19:15 19° NW 02:22:39 10° NNW visible
09 Mar ? 22:57:38 15° NE 22:57:38 15° NE 22:59:24 10° NNE visible
